シューメーカー-レヴィ第4彗星

118P/Shoemaker-Levy 4 (2022)

English version
Home page
Updated on May 13, 2024

---------------------------------------------------------------------

・ プロフィール

・ 写真集

・ 軌道要素

Epoch 2024 Mar. 31.0 TT = JDT 2460400.5
T 2022 Nov. 24.45922 TT                                 Rudenko
q   1.8290906            (2000.0)            P               Q
n   0.16087315     Peri.  314.88437     -0.12805948     -0.98590568
a   3.3482176      Node   142.08422     +0.95215006     -0.15259239
e   0.4537122      Incl.   10.09026     +0.27750861     +0.06859707
P   6.13
>From 1843 observations 2015 Sept. 15-2024 Feb. 19, mean residual 0".6.
     Nongravitational parameters A1 = -0.21, A2 = -0.0052.

・ 星図

・ 光度変化

        H = 14.5  G = 0.15                [    ,-425]  (              〜2021年 9月25日)
        m1 =  8.2 + 5 logΔ + 18.0 log r  [-425, 435]  (2021年 9月25日〜2024年 2月 2日)
        H = 14.5  G = 0.15                [ 435,    ]  (2024年 2月 2日〜              )

---------------------------------------------------------------------

軌道要素はM.P.E.C. 2024-D126に掲載されたものです。
星図はステラナビゲータ Ver.10 (アストロアーツ) で作成したものです。
光度グラフはComet for Windowsで作成したものです。

---------------------------------------------------------------------

Copyright(C) Seiichi Yoshida (comet@aerith.net). All rights reserved.